Location: Lac de la Montagne noire
(46.1952°N, 74.2701°W)
Time: 02:36:12
(UTC-04:00)

OTV 5 (USA 277) - Visible Passes

Search period start: 23 June 2018 00:00
Search period end: 03 July 2018 00:00
Orbit: 313 x 320 km, 54.5° (Epoch: 21 June)

Date Brightness Start Highest point End Pass type
(mag) Time Alt. Az. Time Alt. Az. Time Alt. Az.
23 Jun ? 01:33:22 10° NW 01:34:37 24° NW 01:34:37 24° NW visible
23 Jun ? 22:39:31 10° NNW 22:41:08 14° N 22:42:43 10° NE visible
24 Jun ? 00:13:40 10° NW 00:16:05 28° NNE 00:16:53 24° NE visible
24 Jun ? 22:54:01 10° NNW 22:55:52 16° N 22:57:42 10° NE visible
25 Jun ? 00:27:57 10° NW 00:30:05 44° NNW 00:30:05 44° NNW visible
25 Jun ? 21:33:56 10° NW 21:35:30 14° N 21:37:05 10° NE visible
25 Jun ? 23:08:18 10° NW 23:10:32 22° NNE 23:12:34 11° ENE visible
26 Jun ? 00:42:22 10° WNW 00:43:24 20° WNW 00:43:24 20° WNW visible
26 Jun ? 21:48:34 10° NNW 21:50:16 15° N 21:51:57 10° NE visible
26 Jun ? 23:22:34 10° NW 23:25:08 37° NNE 23:25:57 29° ENE visible
27 Jun ? 22:02:56 10° NNW 22:04:58 19° NNE 22:07:00 10° ENE visible
27 Jun ? 23:36:54 10° NW 23:39:24 73° NW 23:39:24 73° NW visible
28 Jun ? 22:17:13 10° NW 22:19:37 28° NNE 22:22:01 10° E visible
28 Jun ? 23:51:26 10° WNW 23:52:54 24° W 23:52:54 24° W visible
29 Jun ? 22:31:29 10° NW 22:34:09 53° NNE 22:35:36 23° E visible
30 Jun ? 22:45:54 10° WNW 22:48:34 60° SW 22:49:12 43° SSE visible
01 Jul ? 23:00:38 10° W 23:02:51 23° SW 23:02:51 23° SW visible
02 Jul ? 21:40:26 10° NW 21:43:09 83° NNE 21:45:41 11° ESE visible
